Date String (YYYY-MM-DD hh:mm:ss) UTC,Instrument flags,Ambient pressure (hPa),Sample flow (lpm),Bypass flow (lpm),Sample temperature (°C),Ambient temperature (°C),ASC tube jacket temperature (°C),LED temperature (°C),Box temperature (°C),Sample RH (%),Span deviation,Mass concentration (μg/m³),Mass concentration (μg/m³),Mass concentration (μg/m³)
DateTimeUTC,F1_M11,P_M11,Q1_M11,Q2_M11,T1_M11,T2_M11,T3_M11,T4_M11,T5_M11,U1_M11,ZSPAN_M11,X2_M11,X0_M11,X1_M11
2022-11-13 07:00:00,,0822.2,5.00,0.00,22.4,22.2,00.0,31.1,24.4,08.2,-000.9,0006.59,0012.57,0005.93
2022-11-13 07:01:00,,0822.2,5.00,0.00,22.4,21.9,00.0,31.1,24.4,08.2,-000.9,0006.61,0011.72,0005.98
2022-11-13 07:02:00,,0822.2,5.01,0.00,22.4,21.7,00.0,31.1,24.3,08.1,-000.6,0006.69,0012.23,0006.03
2022-11-13 07:03:00,,0822.2,5.00,0.00,22.4,21.5,00.0,31.2,24.3,08.1,-000.8,0006.70,0012.27,0006.04
2022-11-13 07:04:00,,0822.2,5.00,0.00,22.4,21.3,00.0,31.2,24.2,08.1,-000.7,0006.66,0012.24,0006.02
2022-11-13 07:05:00,,0822.2,5.00,0.00,22.4,21.2,00.0,31.2,24.2,08.1,-000.9,0006.61,0012.15,0005.99
2022-11-13 07:06:00,,0822.1,5.00,0.00,22.4,21.0,00.0,31.2,24.2,08.0,0000.3,0006.51,0011.92,0005.92
2022-11-13 07:07:00,,0822.1,5.00,0.00,22.3,21.0,00.0,31.2,24.2,08.0,0001.2,0006.45,0011.63,0005.87
2022-11-13 07:08:00,,0822.1,5.00,0.00,22.3,20.9,00.0,31.2,24.2,08.0,0002.0,0006.41,0011.55,0005.80
2022-11-13 07:09:00,,0822.0,5.00,0.00,22.3,20.9,00.0,31.2,24.1,08.1,0002.3,0006.36,0011.57,0005.75
2022-11-13 07:10:00,,0822.1,5.01,0.00,22.3,20.8,00.0,31.2,24.1,08.0,0002.6,0006.35,0012.25,0005.72
2022-11-13 07:11:00,,0822.1,4.98,0.00,22.3,20.8,00.0,31.2,24.1,08.0,0003.1,0006.28,0012.88,0005.65
2022-11-13 07:12:00,,0822.1,5.00,0.00,22.2,20.7,00.0,31.2,24.0,08.1,0003.8,0006.26,0013.04,0005.62
2022-11-13 07:13:00,,0822.1,5.00,0.00,22.2,20.7,00.0,31.2,24.0,08.2,0004.5,0006.23,0012.60,0005.63
2022-11-13 07:14:00,,0822.1,5.00,0.00,22.2,20.7,00.0,31.2,24.0,08.3,0004.6,0006.26,0012.91,0005.66
2022-11-13 07:15:00,,0822.1,5.00,0.00,22.2,20.7,00.0,31.1,24.0,08.3,0004.9,0006.34,0013.33,0005.70
2022-11-13 07:16:00,,0822.1,5.00,0.00,22.2,20.6,00.0,31.1,24.0,08.3,0005.1,0006.39,0013.32,0005.76
2022-11-13 07:17:00,,0822.1,5.01,0.00,22.2,21.2,00.0,31.1,24.1,08.3,0005.1,0006.45,0013.29,0005.84
2022-11-13 07:18:00,,0822.1,5.00,0.00,22.3,22.1,00.0,31.0,24.3,08.3,0004.9,0006.52,0013.41,0005.89
2022-11-13 07:19:00,,0822.0,5.00,0.00,22.4,22.2,00.0,31.1,24.4,08.2,0004.8,0006.55,0013.62,0005.92
2022-11-13 07:20:00,,0821.9,5.00,0.00,22.4,21.8,00.0,31.1,24.4,08.1,0005.0,0006.58,0013.91,0005.95
2022-11-13 07:21:00,,0821.9,4.99,0.00,22.4,21.6,00.0,31.2,24.3,08.0,0005.2,0006.60,0013.59,0005.97
2022-11-13 07:22:00,,0822.0,5.01,0.00,22.4,21.4,00.0,31.2,24.3,08.1,0005.2,0006.67,0013.02,0006.03
2022-11-13 07:23:00,,0821.8,5.00,0.00,22.4,21.3,00.0,31.2,24.2,08.2,0004.2,0006.68,0013.06,0006.06
2022-11-13 07:24:00,,0821.8,5.00,0.00,22.4,21.2,00.0,31.2,24.2,08.2,0002.8,0006.68,0013.45,0006.07
2022-11-13 07:25:00,,0821.8,4.99,0.00,22.4,21.1,00.0,31.2,24.2,08.3,0003.3,0006.69,0013.87,0006.09
2022-11-13 07:26:00,,0821.8,5.00,0.00,22.3,21.0,00.0,31.2,24.2,08.4,0003.4,0006.71,0013.80,0006.10
2022-11-13 07:27:00,,0821.8,5.00,0.00,22.3,21.0,00.0,31.2,24.2,08.4,0002.9,0006.74,0014.49,0006.14
2022-11-13 07:28:00,,0821.8,5.00,0.00,22.3,21.0,00.0,31.2,24.2,08.4,0002.2,0006.79,0015.20,0006.17
2022-11-13 07:29:00,,0821.8,5.02,0.00,22.3,21.0,00.0,31.2,24.2,08.4,0002.0,0006.78,0016.29,0006.19
2022-11-13 07:30:00,,0821.8,5.00,0.00,22.3,20.9,00.0,31.2,24.2,08.4,0001.1,0006.83,0016.64,0006.25
2022-11-13 07:31:00,,0821.8,5.00,0.00,22.3,20.9,00.0,31.2,24.1,08.4,0000.2,0006.94,0016.53,0006.32
2022-11-13 07:32:00,,0821.8,4.98,0.00,22.3,20.9,00.0,31.2,24.1,08.3,-000.3,0006.99,0016.28,0006.39
2022-11-13 07:33:00,,0821.8,5.01,0.00,22.3,20.9,00.0,31.1,24.1,08.2,-000.2,0007.00,0016.24,0006.40
2022-11-13 07:34:00,,0821.8,5.01,0.00,22.3,20.8,00.0,31.1,24.1,08.0,-000.4,0006.97,0015.91,0006.35
2022-11-13 07:35:00,,0821.7,5.00,0.00,22.2,20.7,00.0,31.1,24.0,08.1,-000.3,0006.95,0015.19,0006.29
2022-11-13 07:36:00,,0821.7,5.00,0.00,22.2,20.7,00.0,31.1,24.0,08.2,-000.6,0006.95,0014.75,0006.28
2022-11-13 07:37:00,,0821.7,5.00,0.00,22.2,21.1,00.0,31.1,24.1,08.1,-000.8,0006.90,0014.93,0006.24
2022-11-13 07:38:00,,0821.7,4.99,0.00,22.3,22.0,00.0,31.1,24.3,08.2,-000.8,0006.86,0014.57,0006.18
2022-11-13 07:39:00,,0821.7,4.99,0.00,22.4,22.2,00.0,31.1,24.5,08.1,-000.7,0006.78,0014.50,0006.12
2022-11-13 07:40:00,,0821.8,5.01,0.00,22.4,22.0,00.0,31.1,24.4,07.9,-000.2,0006.71,0013.54,0006.04
2022-11-13 07:41:00,,0821.7,5.00,0.00,22.4,21.7,00.0,31.2,24.4,07.9,0000.5,0006.60,0013.46,0005.95
2022-11-13 07:42:00,,0821.7,5.01,0.00,22.4,21.5,00.0,31.2,24.3,07.8,0001.7,0006.45,0013.27,0005.82
2022-11-13 07:43:00,,0821.7,4.99,0.00,22.4,21.3,00.0,31.2,24.3,07.8,0002.3,0006.36,0013.68,0005.73
2022-11-13 07:44:00,,0821.7,5.00,0.00,22.4,21.2,00.0,31.2,24.2,07.8,0001.8,0006.27,0013.58,0005.67
2022-11-13 07:45:00,,0821.7,5.00,0.00,22.4,21.0,00.0,31.2,24.2,07.7,0001.0,0006.23,0013.54,0005.65
2022-11-13 07:46:00,,0821.7,5.02,0.00,22.4,21.0,00.0,31.2,24.2,07.7,0000.3,0006.15,0013.43,0005.63
2022-11-13 07:47:00,,0821.7,5.00,0.00,22.4,20.9,00.0,31.2,24.2,07.8,0000.2,0006.05,0012.98,0005.57
2022-11-13 07:48:00,,0821.7,5.00,0.00,22.3,20.8,00.0,31.2,24.1,07.8,-000.4,0005.98,0012.34,0005.53
2022-11-13 07:49:00,,0821.7,5.00,0.00,22.3,20.8,00.0,31.2,24.1,07.8,-000.4,0005.87,0011.91,0005.47
2022-11-13 07:50:00,,0821.7,5.00,0.00,22.3,20.7,00.0,31.2,24.1,07.7,-000.3,0005.76,0011.30,0005.40
2022-11-13 07:51:00,,0821.7,5.00,0.00,22.3,20.7,00.0,31.2,24.1,07.7,0000.1,0005.72,0011.23,0005.36
2022-11-13 07:52:00,,0821.7,4.99,0.00,22.2,20.7,00.0,31.2,24.0,07.7,-000.9,0005.67,0010.77,0005.31
2022-11-13 07:53:00,,0821.7,4.99,0.00,22.2,20.7,00.0,31.2,24.0,07.6,-000.7,0005.61,0010.54,0005.29
2022-11-13 07:54:00,,0821.7,5.00,0.00,22.2,20.7,00.0,31.2,24.0,07.7,-000.2,0005.59,0010.74,0005.26
2022-11-13 07:55:00,,0821.7,5.02,0.00,22.2,21.4,00.0,31.1,24.2,07.7,0000.3,0005.61,0010.59,0005.26
2022-11-13 07:56:00,,0821.6,4.99,0.00,22.3,22.2,00.0,31.1,24.4,07.6,0000.7,0005.61,0010.66,0005.24
2022-11-13 07:57:00,,0821.6,5.00,0.00,22.4,22.1,00.0,31.1,24.4,07.5,0001.7,0005.62,0010.75,0005.22
2022-11-13 07:58:00,,0821.6,5.00,0.00,22.4,21.8,00.0,31.2,24.4,07.5,0002.7,0005.58,0011.03,0005.18
2022-11-13 07:59:00,,0821.6,5.01,0.00,22.4,21.6,00.0,31.2,24.3,07.5,0003.1,0005.52,0011.00,0005.12
